Location: Sternwarte ZA, Rosenfeld-Brittheim
(48.2889°N, 8.6789°E)
Time: 08:50:50
(UTC+02:00)

ISS - Pass Details

Date: 17 May 2021
Orbit: 417 x 422 km, 51.6° (Epoch: 18 June)

Event Time Altitude Azimuth Distance (km) Brightness Sun altitude
Rises 23:38:59 0° 267° (W) 2,364 0.4 -18.4°
Reaches altitude 10° 23:41:07 10° 273° (W) 1,502 -0.6 -18.5°
Maximum altitude 23:44:25 51° 350° (N) 538 -2.9 -18.8°
Drops below altitude 10° 23:47:43 10° 68° (ENE) 1,508 -1.0 -19.0°
Enters shadow 23:49:29 - 73° (ENE) 2,216 -0.1 -19.1°
